User: anonymous   Login
Location: Unspecified
(0.0000°N, 0.0000°E)
Time: 14:50:36
(UTC+00:00)
Language:

DICE 2 - Orbit

View from above orbital plane
View from above orbital plane
View from above satellite
View from above satellite

Ground track
Ground track

The orbit data is extracted from the following two-line orbital elements,

1 37852U 11061C   17206.23895130 +.00001445 +00000-0 +83971-4 0  9997
2 37852 101.7141 099.2328 0171446 325.7759 033.2496 15.04056627312106
Epoch (UTC): 25 July 2017 05:44:05
Eccentricity: 0.0171446
inclination: 101.7141°
perigee height: 435 km
apogee height: 673 km
right ascension of ascending node: 99.2328°
argument of perigee: 325.7759°
revolutions per day: 15.04056627
mean anomaly at epoch: 33.2496°
orbit number at epoch: 31210

The dashed part of the orbit path shows where the satellite is in the earth's shadow,  

DLR